User: anonymous   Login
Location: Unspecified
(0.0000°N, 0.0000°E)
Time: 15:49:45
(UTC+00:00)
Language:

STEP CUBE LAB - Orbit

View from above orbital plane
View from above orbital plane
View from above satellite
View from above satellite

Ground track
Ground track

The orbit data is extracted from the following two-line orbital elements,

1 43138U 18004AD  19078.44451819 +.00001757 +00000-0 +76015-4 0  9996
2 43138 097.4983 146.6301 0008460 207.8210 152.2576 15.23765920065627
Epoch (UTC): 19 March 2019 10:40:06
Eccentricity: 0.0008460
inclination: 97.4983°
perigee height: 488 km
apogee height: 500 km
right ascension of ascending node: 146.6301°
argument of perigee: 207.8210°
revolutions per day: 15.23765920
mean anomaly at epoch: 152.2576°
orbit number at epoch: 6562

The dashed part of the orbit path shows where the satellite is in the earth's shadow,  

DLR